Weather History for KCKC - November, 2012

Change the Weather History Date:

Tuesday, November 20, 2012

  Actual Average Record
Temperature  
Mean Temperature 35 °F -  
Max Temperature 42 °F 29 °F 51 °F (2003)
Min Temperature 28 °F 18 °F 0 °F (2014)
Degree Days  
Heating Degree Days 30    
Moisture  
Dew Point 28 °F    
Average Humidity 84    
Maximum Humidity 93    
Minimum Humidity 57    
Precipitation  
Precipitation 0.00 in - - ()
Sea Level Pressure  
Sea Level Pressure 30.06 in    
Wind  
Wind Speed 6 mph (West)    
Max Wind Speed 15 mph    
Max Gust Speed 20 mph    
Visibility 5 miles    
Events Fog    
Averages and records for this station are not official NWS values.
T = Trace of Precipitation, MM = Missing Value Source: NWS Daily Summary

Daily Weather History Graph

Daily Weather History Graph

Search for Another Location

Airport or City:

Trip Planner

Search our weather history database for the weather conditions in past years. The results will help you decide how hot, cold, wet, or windy it might be!

Date:

Astronomy

Nov. 20, 2012 Rise Set
Actual Time 7:15 AM CST 4:18 PM CST
Civil Twilight 6:41 AM CST 4:52 PM CST
Nautical Twilight 6:03 AM CST 5:31 PM CST
Astronomical Twilight 5:26 AM CST 6:07 PM CST
Moon 12:34 PM CST (11/20) No Moon Set
Length of Visible Light 10h 11m
Length of Day
9h 03m
First Quarter, 51% of the Moon is Illuminated
Nov 20
First Quarter
Nov 28
Full
Dec 6
Last Quarter
Dec 13
New
Dec 19
First Quarter

Hourly Weather History & Observations

Time (CST) Temp. Windchill Dew Point Humidity Pressure Visibility Wind Dir Wind Speed Gust Speed Precip Events Conditions
12:13 AM 35.6 °F 31.7 °F 30.2 °F 81% 30.01 in 10.0 mi NW 4.6 mph - N/A   Clear
12:33 AM 33.8 °F 29.6 °F 30.2 °F 87% 30.01 in 10.0 mi NNW 4.6 mph - N/A   Clear
12:54 AM 33.8 °F 29.6 °F 30.2 °F 87% 30.02 in 7.0 mi NNW 4.6 mph - N/A   Clear
1:13 AM 33.8 °F 30.8 °F 30.2 °F 87% 30.01 in 7.0 mi NNW 3.5 mph - N/A   Clear
1:33 AM 33.8 °F 28.6 °F 30.2 °F 87% 30.02 in 7.0 mi NNW 5.8 mph - N/A   Clear
1:54 AM 33.8 °F 29.6 °F 28.4 °F 81% 30.03 in 7.0 mi NW 4.6 mph - N/A   Clear
2:13 AM 33.8 °F 27.7 °F 30.2 °F 87% 30.03 in 7.0 mi NW 6.9 mph - N/A   Clear
2:34 AM 33.8 °F 26.4 °F 30.2 °F 87% 30.03 in 7.0 mi NW 9.2 mph 16.1 mph N/A   Clear
2:53 AM 33.8 °F 25.3 °F 30.2 °F 87% 30.03 in 5.0 mi NNW 11.5 mph - N/A   Clear
3:13 AM 33.8 °F 25.3 °F 30.2 °F 87% 30.04 in 3.0 mi NW 11.5 mph 19.6 mph N/A   Scattered Clouds
3:34 AM 33.8 °F 23.9 °F 30.2 °F 87% 30.04 in 5.0 mi NNW 15.0 mph 19.6 mph N/A   Mostly Cloudy
3:54 AM 33.8 °F 24.3 °F 28.4 °F 81% 30.04 in 5.0 mi NNW 13.8 mph 19.6 mph N/A   Mostly Cloudy
4:14 AM 32.0 °F 23.0 °F 28.4 °F 87% 30.04 in 4.0 mi NNW 11.5 mph - N/A   Overcast
4:33 AM 30.2 °F 20.2 °F 28.4 °F 93% 30.04 in 5.0 mi NNW 12.7 mph 18.4 mph N/A   Mostly Cloudy
4:54 AM 30.2 °F 20.2 °F 26.6 °F 86% 30.05 in 5.0 mi NNW 12.7 mph 18.4 mph N/A   Mostly Cloudy
5:14 AM 30.2 °F 20.8 °F 26.6 °F 86% 30.05 in 5.0 mi NNW 11.5 mph - N/A   Mostly Cloudy
5:33 AM 30.2 °F 21.3 °F 26.6 °F 86% 30.04 in 4.0 mi NNW 10.4 mph 16.1 mph N/A   Mostly Cloudy
5:53 AM 30.2 °F 19.3 °F 26.6 °F 86% 30.05 in 5.0 mi NNW 15.0 mph 18.4 mph N/A   Mostly Cloudy
6:14 AM 28.4 °F 21.2 °F 26.6 °F 93% 30.06 in 5.0 mi NW 6.9 mph - N/A   Scattered Clouds
6:33 AM 28.4 °F 19.7 °F 26.6 °F 93% 30.06 in 5.0 mi NNW 9.2 mph - N/A   Scattered Clouds
6:54 AM 28.4 °F 21.2 °F 26.6 °F 93% 30.06 in 5.0 mi NNW 6.9 mph - N/A   Mostly Cloudy
7:13 AM 28.4 °F 19.1 °F 24.8 °F 86% 30.07 in 5.0 mi NNW 10.4 mph 16.1 mph N/A   Mostly Cloudy
7:34 AM 28.4 °F 19.7 °F 24.8 °F 86% 30.08 in 5.0 mi NNW 9.2 mph - N/A   Mostly Cloudy
7:53 AM 28.4 °F 21.2 °F 26.6 °F 93% 30.09 in 5.0 mi NW 6.9 mph - N/A   Mostly Cloudy
8:14 AM 28.4 °F 22.2 °F 26.6 °F 93% 30.10 in 7.0 mi NW 5.8 mph - N/A   Mostly Cloudy
8:34 AM 28.4 °F 24.6 °F 26.6 °F 93% 30.10 in 7.0 mi NW 3.5 mph - N/A   Mostly Cloudy
8:53 AM 28.4 °F - 26.6 °F 93% 30.10 in 5.0 mi Calm Calm - N/A   Overcast
9:13 AM 30.2 °F 23.4 °F 26.6 °F 86% 30.10 in 7.0 mi NNW 6.9 mph - N/A   Mostly Cloudy
9:34 AM 30.2 °F 22.6 °F 26.6 °F 86% 30.10 in 5.0 mi NNW 8.1 mph - N/A   Scattered Clouds
9:53 AM 32.0 °F 26.4 °F 26.6 °F 80% 30.09 in 10.0 mi NNW 5.8 mph - N/A   Scattered Clouds
10:13 AM 33.8 °F 29.6 °F 28.4 °F 81% 30.09 in 10.0 mi NNW 4.6 mph - N/A   Clear
10:34 AM 37.4 °F - 28.4 °F 70% 30.11 in 10.0 mi Calm Calm - N/A   Clear
10:54 AM 37.4 °F - 28.4 °F 70% 30.10 in 10.0 mi Calm Calm - N/A   Clear
11:13 AM 39.2 °F - 26.6 °F 61% 30.11 in 10.0 mi Calm Calm - N/A   Clear
11:34 AM 41.0 °F - 26.6 °F 57% 30.11 in 10.0 mi Calm Calm - N/A   Clear
11:53 AM 42.8 °F 41.1 °F 28.4 °F 57% 30.10 in 10.0 mi SSW 3.5 mph - N/A   Clear
12:14 PM 42.8 °F - 28.4 °F 57% 30.10 in 10.0 mi Calm Calm - N/A   Clear
12:54 PM 42.8 °F - 28.4 °F 57% 30.09 in 10.0 mi Calm Calm - N/A   Clear
1:13 PM 39.2 °F 35.9 °F 30.2 °F 70% 30.09 in 10.0 mi SSE 4.6 mph - N/A   Clear
1:33 PM 39.2 °F 37.0 °F 30.2 °F 70% 30.08 in 10.0 mi South 3.5 mph - N/A   Clear
1:54 PM 37.4 °F - 30.2 °F 75% 30.08 in 10.0 mi Calm Calm - N/A   Clear
2:13 PM 39.2 °F 37.0 °F 30.2 °F 70% 30.08 in 10.0 mi SSE 3.5 mph - N/A   Clear
2:33 PM 39.2 °F 35.0 °F 30.2 °F 70% 30.07 in 10.0 mi SE 5.8 mph - N/A   Clear
2:54 PM 37.4 °F 32.8 °F 30.2 °F 75% 30.07 in 10.0 mi SE 5.8 mph - N/A   Clear
3:14 PM 35.6 °F 31.7 °F 30.2 °F 81% 30.08 in 10.0 mi South 4.6 mph - N/A   Clear
3:33 PM 33.8 °F 29.6 °F 28.4 °F 81% 30.09 in 10.0 mi SSE 4.6 mph - N/A   Clear
3:53 PM 33.8 °F 29.6 °F 28.4 °F 81% 30.09 in 10.0 mi South 4.6 mph - N/A   Clear
4:14 PM 32.0 °F - 28.4 °F 87% 30.08 in 10.0 mi Calm Calm - N/A   Clear
4:33 PM 30.2 °F 26.7 °F 28.4 °F 93% 30.07 in 7.0 mi SSE 3.5 mph - N/A   Mostly Cloudy
4:54 PM 32.0 °F 28.7 °F 28.4 °F 87% 30.08 in 2.0 mi South 3.5 mph - N/A   Overcast
5:13 PM 32.0 °F 28.7 °F 28.4 °F 87% 30.08 in 1.2 mi South 3.5 mph - N/A   Overcast
5:34 PM 32.0 °F 28.7 °F 28.4 °F 87% 30.07 in 1.8 mi South 3.5 mph - N/A   Overcast
5:53 PM 32.0 °F 27.5 °F 28.4 °F 87% 30.07 in 1.5 mi South 4.6 mph - N/A   Overcast
6:13 PM 32.0 °F - 28.4 °F 87% 30.07 in 1.5 mi Calm Calm - N/A   Overcast
6:34 PM 30.2 °F 26.7 °F 28.4 °F 93% 30.06 in 1.5 mi South 3.5 mph - N/A   Overcast
6:54 PM 30.2 °F 26.7 °F 28.4 °F 93% 30.06 in 0.8 mi South 3.5 mph - N/A   Overcast
7:13 PM 30.2 °F 25.4 °F 28.4 °F 93% 30.06 in 0.5 mi South 4.6 mph - N/A Fog Light Freezing Fog
7:33 PM 30.2 °F 25.4 °F 28.4 °F 93% 30.07 in 0.5 mi SSE 4.6 mph - N/A Fog Light Freezing Fog
7:54 PM 30.2 °F 26.7 °F 28.4 °F 93% 30.07 in 0.8 mi South 3.5 mph - N/A   Overcast
8:13 PM 30.2 °F 24.3 °F 28.4 °F 93% 30.06 in 0.5 mi South 5.8 mph - N/A Fog Light Freezing Fog
8:34 PM 30.2 °F 26.7 °F 28.4 °F 93% 30.05 in 0.2 mi South 3.5 mph - N/A Fog Light Freezing Fog
8:54 PM 30.2 °F - 28.4 °F 93% 30.05 in 0.5 mi Calm Calm - N/A Fog Light Freezing Fog
9:14 PM 30.2 °F - 28.4 °F 93% 30.05 in 0.2 mi Calm Calm - N/A Fog Light Freezing Fog
9:33 PM 30.2 °F - 28.4 °F 93% 30.05 in 0.2 mi Calm Calm - N/A Fog Light Freezing Fog
9:54 PM 30.2 °F 26.7 °F 28.4 °F 93% 30.05 in 0.2 mi SSW 3.5 mph - N/A Fog Light Freezing Fog
10:14 PM 28.4 °F 23.3 °F 26.6 °F 93% 30.04 in 0.2 mi SSW 4.6 mph - N/A Fog Light Freezing Fog
10:33 PM 28.4 °F 24.6 °F 26.6 °F 93% 30.03 in 0.2 mi South 3.5 mph - N/A Fog Light Freezing Fog
10:54 PM 28.4 °F 24.6 °F 26.6 °F 93% 30.02 in 0.2 mi South 3.5 mph - N/A Fog Light Freezing Fog
11:14 PM 28.4 °F 22.2 °F 26.6 °F 93% 30.02 in 0.2 mi South 5.8 mph - N/A Fog Light Freezing Fog
11:33 PM 28.4 °F 23.3 °F 26.6 °F 93% 30.01 in 0.2 mi South 4.6 mph - N/A Fog Light Freezing Fog
11:54 PM 30.2 °F 26.7 °F 26.6 °F 86% 30.01 in 0.2 mi SSW 3.5 mph - N/A Fog Light Freezing Fog